Overview Statistics Trail Chart Weather Telemetry Raw packets
 

This is the latest recevied weather packets stored in our database for station/object IU1OLT-6. If no packets are shown the sender has not sent any weather packets the latest 10 day(s).

<< 19 20 21 22 23 24 25 >>
Time Temp. Humidity Pressure Rain* Wind** Luminosity Snow
1788218388 17.22° C 70% 1013.9 hPa 0 mm - - -
1788217477 17.22° C 64% 1013.8 hPa 0 mm - - -
1788216517 17.22° C 65% 1013.8 hPa 0 mm - - -
1788215557 17.78° C 64% 1013.7 hPa 0 mm - - -
1788214644 17.22° C 65% 1013.7 hPa 0 mm - - -
1788213733 17.22° C 70% 1013.6 hPa 0 mm - - -
1788212773 16.67° C 65% 1013.4 hPa 0 mm - - -
1788211813 16.67° C 66% 1013.4 hPa 0 mm - - -
1788210853 17.22° C 64% 1013.3 hPa 0 mm - - -
1788209893 17.78° C 57% 1013.3 hPa 0 mm - - -
1788208933 17.22° C 60% 1013.4 hPa 0 mm - - -
1788207973 17.22° C 59% 1013.2 hPa 0 mm - - -
1788207013 16.67° C 62% 1013.1 hPa 0 mm - - -
1788206053 16.67° C 65% 1013.1 hPa 0 mm - - -
1788205093 16.11° C 69% 1013.1 hPa 0 mm - - -
1788204133 16.11° C 69% 1013.2 hPa 0 mm - - -
1788203220 16.67° C 60% 1013 hPa 0 mm - - -
1788202309 16.11° C 59% 1012.8 hPa 0 mm - - -
1788201397 15.56° C 71% 1012.9 hPa 0 mm - - -
1788200485 15.56° C 75% 1012.6 hPa 0 mm - - -
1788199525 15.56° C 67% 1012.4 hPa 0 mm - - -
1788198565 16.67° C 73% 1012.3 hPa 0 mm - - -
1788197653 15.56° C 85% 1012.3 hPa 0 mm - - -
1788196741 16.11° C 84% 1012.3 hPa 0 mm - - -
1788195781 16.11° C 84% 1012.5 hPa 0 mm - - -

* Rain latest hour (hover to see other rain measurements)
** Current wind speed in m/s (hover to see current wind gust speed)